一网星座-0617星 (ONEWEB-0617)

导读 | 豆包AI

ONEWEB-0617是英国一网公司(OneWeb)的低轨宽带通信卫星,于2023年1月10日发射入轨,是OneWeb第一代低轨星座组网卫星的成员。该卫星归属已与欧洲通信卫星公司合并的英国OneWeb,旨在为全球偏远地区及基础设施薄弱区域提供高性价比互联网接入服务,补充全球网络覆盖缺口,和星链形成商业竞争,支撑OneWeb低轨宽带星座的全球服务能力构建。

基本信息
目录编号:
55158
目录名称:
ONEWEB-0617
国际标识:
2023-004U
轨道中心:
EARTH
卫星名称:
一网星座-0617星
卫星全名:
一网星座-0617星 (ONEWEB-0617)
卫星状态:
在轨 (已飞行1180 天)
发射日期:
2023-01-10 UTC
国别 :
英国 (GB)
星等 :
--
轨道信息
数据来源 国际轨道数据 AOE轨道数据
星历时间 2026-04-04T03:55:35+0800
7小时前
查看轨道信息
2026-04-01T13:00:00+0800
2天前
查看轨道信息
半长轴 7595.826km 7595.852km
偏心率 0.0001442 0.0002125
轨道倾角 87.891° 87.887°
近地点辐角 72.375° 33.544°
升交点赤经 35.845° 36.369°
平近点角 287.753° 195.248°
近地点 1216.593km 1216.1km
远地点 1218.785km 1219.33km
周期 109.805分钟 109.806分钟
每日圈数 13.114155 13.114087
详细信息
平衡模式:
三轴稳定
覆盖范围:
全球
运营商:
一网卫星公司
运营商所在国:
英国
制造商(研发单位):
一网卫星公司
制造商所在国:
英国
使用方式:
暂无
卫星简介
OneWeb卫星网络由648颗重约125公斤的微型卫星组成,运行在1200公里的轨道上。 每颗卫星都能够提供至少每秒8千兆位的吞吐量,以使用其高吞吐量的Ku频段有效载荷为家庭和移动平台提供互联网接入。该卫星仍在工作。
2D轨道图
3D轨道图
轨道高度分析图
轨道倾角分析图
轨道综合分析图
查看轨道综合分析图